Location: Unspecified
(0.0000°N, 0.0000°E)
Time: 13:45:39
(UTC+00:00)

Vanguard 1 - Pass Details

Date: 29 November 2019
Orbit: 652 x 3831 km, 34.3° (Epoch: 08 December)

Event Time Altitude Azimuth Distance (km) Brightness Sun altitude
Rises 01:10:20 0° 219° (SW) 6,423 14.3 -60.7°
Reaches altitude 10° 01:14:37 10° 211° (SSW) 5,791 14.0 -59.9°
Maximum altitude 01:32:53 42° 145° (SE) 4,689 13.5 -56.7°
Drops below altitude 10° 01:53:54 10° 81° (E) 6,688 14.5 -52.6°
Sets 01:59:11 0° 75° (ENE) 7,463 14.9 -51.5°
